RYR13Y LIRP-LICA

Flight info

Callsign RYR13Y
Flight time 1h 10m
Altitude 35000
Route DOCME M729 ELB DCT PNZ DCT AGNIS M729 GIROV
Aircraft B738/M-SDE3/L

Departure

Time 2026-04-21 12:07
Airport Pisa International Airport (LIRP)

Arrival

Time 2026-04-21 13:17
Airport Lamezia Terme Sant'Eufemia International Airport (LICA)
Time Latitude Longitude Altitude Speed Heading
2026-04-21 11:06 43.69757 10.40093 14 ft 0 kts
2026-04-21 11:58 43.69754 10.40092 14 ft 2 kts
2026-04-21 11:58 43.69737 10.40089 15 ft 2 kts
2026-04-21 11:58 43.69721 10.40085 14 ft 2 kts
2026-04-21 11:58 43.69705 10.40082 15 ft 2 kts
2026-04-21 11:59 43.69689 10.40085 15 ft 2 kts 327°
2026-04-21 11:59 43.69680 10.40097 16 ft 1 kts 287°
2026-04-21 11:59 43.69678 10.40108 15 ft 0 kts 280°
2026-04-21 12:01 43.69678 10.40105 15 ft 1 kts 280°
2026-04-21 12:01 43.69682 10.40065 16 ft 7 kts 276°
2026-04-21 12:01 43.69683 10.39984 14 ft 9 kts 251°
2026-04-21 12:02 43.69622 10.39940 16 ft 11 kts 192°
2026-04-21 12:02 43.69434 10.39899 15 ft 13 kts 189°
2026-04-21 12:02 43.69350 10.39889 15 ft 13 kts 166°
2026-04-21 12:03 43.69262 10.39914 19 ft 13 kts 172°
2026-04-21 12:03 43.69174 10.39901 23 ft 14 kts 208°
2026-04-21 12:03 43.69079 10.39823 19 ft 19 kts 214°
2026-04-21 12:03 43.68961 10.39696 18 ft 24 kts 220°
2026-04-21 12:04 43.68814 10.39550 17 ft 28 kts 211°
2026-04-21 12:04 43.68639 10.39382 17 ft 32 kts 215°
2026-04-21 12:04 43.68453 10.39187 16 ft 35 kts 218°
2026-04-21 12:04 43.68251 10.38973 14 ft 39 kts 217°
2026-04-21 12:05 43.68034 10.38744 12 ft 39 kts 217°
2026-04-21 12:05 43.67820 10.38523 15 ft 37 kts 216°
2026-04-21 12:05 43.67622 10.38321 12 ft 35 kts 216°
2026-04-21 12:05 43.67432 10.38136 14 ft 32 kts 201°
2026-04-21 12:06 43.67313 10.38311 16 ft 28 kts 72°
2026-04-21 12:06 43.67483 10.38503 19 ft 49 kts 36°
2026-04-21 12:06 43.67992 10.39025 15 ft 132 kts 37°
2026-04-21 12:06 43.68925 10.39985 39 ft 199 kts 37°
2026-04-21 12:07 43.70075 10.41180 804 ft 209 kts 37°
2026-04-21 12:07 43.71224 10.42456 1758 ft 213 kts 38°
2026-04-21 12:07 43.72332 10.43713 2363 ft 197 kts 38°
2026-04-21 12:07 43.73398 10.44854 2915 ft 186 kts 32°
2026-04-21 12:08 43.74539 10.45613 3547 ft 191 kts 21°
2026-04-21 12:08 43.75904 10.45869 4017 ft 203 kts 347°
2026-04-21 12:08 43.77141 10.44937 4526 ft 208 kts 311°
2026-04-21 12:08 43.77769 10.43142 5037 ft 213 kts 277°
2026-04-21 12:09 43.77498 10.41139 5527 ft 220 kts 237°
2026-04-21 12:09 43.76283 10.39834 6043 ft 229 kts 200°
2026-04-21 12:09 43.74883 10.38760 6547 ft 237 kts 230°
2026-04-21 12:09 43.73813 10.37000 7079 ft 246 kts 218°
2026-04-21 12:10 43.72190 10.36169 7580 ft 260 kts 181°
2026-04-21 12:10 43.70448 10.36773 8278 ft 262 kts 157°
2026-04-21 12:10 43.68803 10.37721 9306 ft 252 kts 162°
2026-04-21 12:10 43.67135 10.38515 9761 ft 255 kts 174°
2026-04-21 12:11 43.65352 10.38256 9969 ft 267 kts 204°
2026-04-21 12:11 43.63577 10.37205 10169 ft 289 kts 208°
2026-04-21 12:11 43.61673 10.36007 10340 ft 312 kts 207°
2026-04-21 12:11 43.59631 10.34741 10554 ft 330 kts 207°
2026-04-21 12:12 43.57505 10.33459 11048 ft 337 kts 207°
2026-04-21 12:12 43.55308 10.32165 11686 ft 340 kts 207°
2026-04-21 12:12 43.53120 10.30897 12354 ft 343 kts 207°
2026-04-21 12:12 43.51079 10.29724 12966 ft 346 kts 207°
2026-04-21 12:13 43.48844 10.28447 13603 ft 350 kts 207°
2026-04-21 12:13 43.46581 10.27158 14196 ft 354 kts 207°
2026-04-21 12:13 43.44292 10.25858 14791 ft 358 kts 207°
2026-04-21 12:13 43.41960 10.24595 15374 ft 365 kts 202°
2026-04-21 12:14 43.39429 10.23932 15956 ft 376 kts 189°
2026-04-21 12:14 43.36784 10.24005 16555 ft 386 kts 177°
2026-04-21 12:14 43.34112 10.24609 17118 ft 393 kts 174°
2026-04-21 12:14 43.31405 10.25299 17664 ft 398 kts 174°
2026-04-21 12:15 43.28666 10.26010 18214 ft 402 kts 174°
2026-04-21 12:15 43.25865 10.26730 18718 ft 406 kts 174°
2026-04-21 12:15 43.23115 10.27424 19212 ft 409 kts 174°
2026-04-21 12:15 43.20270 10.28131 19705 ft 412 kts 175°
2026-04-21 12:16 43.17434 10.28828 20199 ft 415 kts 175°
2026-04-21 12:16 43.14581 10.29525 20674 ft 418 kts 175°
2026-04-21 12:16 43.11706 10.30225 21149 ft 422 kts 175°
2026-04-21 12:16 43.08800 10.30931 21622 ft 425 kts 175°
2026-04-21 12:17 43.05880 10.31640 22086 ft 428 kts 175°
2026-04-21 12:17 43.02934 10.32355 22552 ft 431 kts 175°
2026-04-21 12:17 42.99969 10.33073 22998 ft 435 kts 175°
2026-04-21 12:17 42.96985 10.33797 23431 ft 438 kts 176°
2026-04-21 12:18 42.93975 10.34526 23823 ft 440 kts 175°
2026-04-21 12:18 42.90957 10.35257 24228 ft 442 kts 176°
2026-04-21 12:18 42.87921 10.35991 24632 ft 443 kts 176°
2026-04-21 12:18 42.84837 10.36737 25032 ft 445 kts 176°
2026-04-21 12:19 42.81787 10.37472 25395 ft 447 kts 176°
2026-04-21 12:19 42.78720 10.38211 25789 ft 449 kts 176°
2026-04-21 12:19 42.75655 10.39178 26130 ft 458 kts 166°
2026-04-21 12:19 42.72738 10.41016 26495 ft 467 kts 153°
2026-04-21 12:20 42.70119 10.43651 26864 ft 474 kts 139°
2026-04-21 12:20 42.67822 10.46890 27209 ft 477 kts 135°
2026-04-21 12:20 42.65581 10.50238 27520 ft 480 kts 134°
2026-04-21 12:20 42.64106 10.52470 27715 ft 481 kts 134°
2026-04-21 12:21 42.61101 10.57009 28143 ft 484 kts 134°
2026-04-21 12:21 42.59600 10.59255 28356 ft 485 kts 135°
2026-04-21 12:21 42.57290 10.62682 28657 ft 486 kts 135°
2026-04-21 12:21 42.54996 10.66056 28968 ft 488 kts 135°
2026-04-21 12:22 42.52686 10.69432 29255 ft 490 kts 135°
2026-04-21 12:22 42.50360 10.72818 29535 ft 492 kts 135°
2026-04-21 12:22 42.48027 10.76208 29848 ft 492 kts 135°
2026-04-21 12:22 42.45687 10.79603 30237 ft 491 kts 135°
2026-04-21 12:23 42.43369 10.82965 30603 ft 489 kts 135°
2026-04-21 12:23 42.41046 10.86331 30925 ft 489 kts 135°
2026-04-21 12:23 42.38723 10.89693 31208 ft 489 kts 136°
2026-04-21 12:23 42.36406 10.93043 31509 ft 489 kts 136°
2026-04-21 12:24 42.34083 10.96399 31860 ft 487 kts 136°
2026-04-21 12:24 42.31769 10.99739 32202 ft 486 kts 136°
2026-04-21 12:24 42.29430 11.03109 32503 ft 486 kts 136°
2026-04-21 12:24 42.27142 11.06402 32796 ft 486 kts 136°
2026-04-21 12:25 42.24836 11.09719 33108 ft 485 kts 136°
2026-04-21 12:25 42.22499 11.13074 33448 ft 484 kts 136°
2026-04-21 12:25 42.20219 11.16346 33755 ft 483 kts 136°
2026-04-21 12:25 42.17885 11.19690 34038 ft 483 kts 136°
2026-04-21 12:26 42.15589 11.22978 34340 ft 481 kts 136°
2026-04-21 12:26 42.13304 11.26245 34655 ft 479 kts 136°
2026-04-21 12:26 42.11023 11.29502 34919 ft 478 kts 136°
2026-04-21 12:27 42.06404 11.36083 34947 ft 488 kts 136°
2026-04-21 12:27 42.01690 11.42784 34953 ft 498 kts 136°
2026-04-21 12:28 41.96889 11.49598 34939 ft 503 kts 136°
2026-04-21 12:28 41.92027 11.56485 34941 ft 506 kts 136°
2026-04-21 12:29 41.87177 11.63338 34939 ft 506 kts 136°
2026-04-21 12:29 41.82334 11.70163 34940 ft 505 kts 136°
2026-04-21 12:30 41.77499 11.76961 34949 ft 503 kts 136°
2026-04-21 12:30 41.72676 11.83726 34939 ft 501 kts 136°
2026-04-21 12:31 41.67861 11.90464 34941 ft 499 kts 136°
2026-04-21 12:31 41.63063 11.97161 34945 ft 498 kts 136°
2026-04-21 12:32 41.58279 12.03825 34939 ft 497 kts 136°
2026-04-21 12:32 41.53529 12.10426 34937 ft 496 kts 136°
2026-04-21 12:33 41.48716 12.17099 34957 ft 495 kts 136°
2026-04-21 12:33 41.43973 12.23660 34951 ft 495 kts 136°
2026-04-21 12:34 41.39161 12.30302 34961 ft 495 kts 136°
2026-04-21 12:34 41.34366 12.36905 34957 ft 496 kts 137°
2026-04-21 12:35 41.29559 12.43511 34956 ft 497 kts 136°
2026-04-21 12:35 41.24741 12.50116 34950 ft 498 kts 137°
2026-04-21 12:36 41.19911 12.56723 34961 ft 499 kts 137°
2026-04-21 12:36 41.15064 12.63339 34956 ft 500 kts 137°
2026-04-21 12:37 41.10206 12.69955 34954 ft 501 kts 137°
2026-04-21 12:37 41.05341 12.76564 34959 ft 501 kts 137°
2026-04-21 12:38 41.00429 12.83226 34960 ft 502 kts 137°
2026-04-21 12:38 40.95550 12.89827 34960 ft 502 kts 137°
2026-04-21 12:39 40.90686 12.96451 34956 ft 502 kts 133°
2026-04-21 12:39 40.86265 13.03601 34958 ft 503 kts 129°
2026-04-21 12:40 40.81981 13.10923 34957 ft 503 kts 129°
2026-04-21 12:40 40.77682 13.18192 34962 ft 502 kts 130°
2026-04-21 12:41 40.73323 13.25448 34964 ft 501 kts 130°
2026-04-21 12:41 40.68976 13.32633 34959 ft 501 kts 130°
2026-04-21 12:42 40.64629 13.39798 34962 ft 500 kts 130°
2026-04-21 12:42 40.60284 13.46949 34962 ft 500 kts 130°
2026-04-21 12:43 40.55939 13.54086 34965 ft 500 kts 130°
2026-04-21 12:43 40.51590 13.61216 34965 ft 499 kts 130°
2026-04-21 12:44 40.47244 13.68322 34964 ft 499 kts 130°
2026-04-21 12:44 40.42894 13.75419 34965 ft 499 kts 130°
2026-04-21 12:45 40.38534 13.82515 34963 ft 499 kts 130°
2026-04-21 12:45 40.34180 13.89586 34966 ft 499 kts 130°
2026-04-21 12:46 40.29785 13.96707 34968 ft 499 kts 130°
2026-04-21 12:46 40.25407 14.03784 34977 ft 501 kts 130°
2026-04-21 12:47 40.20993 14.10904 34955 ft 499 kts 131°
2026-04-21 12:47 40.16623 14.17937 34961 ft 497 kts 131°
2026-04-21 12:48 40.12277 14.24917 34960 ft 495 kts 131°
2026-04-21 12:48 40.07930 14.31880 34968 ft 493 kts 131°
2026-04-21 12:49 40.04300 14.37684 34965 ft 493 kts 131°
2026-04-21 12:49 39.99952 14.44619 34967 ft 494 kts 131°
2026-04-21 12:50 39.95565 14.51604 34968 ft 495 kts 131°
2026-04-21 12:50 39.91196 14.58545 34967 ft 496 kts 131°
2026-04-21 12:51 39.86815 14.65490 34963 ft 495 kts 131°
2026-04-21 12:51 39.82458 14.72386 34556 ft 487 kts 131°
2026-04-21 12:51 39.80340 14.75729 34053 ft 485 kts 131°
2026-04-21 12:52 39.78193 14.79113 33386 ft 485 kts 131°
2026-04-21 12:52 39.76016 14.82539 32728 ft 485 kts 131°
2026-04-21 12:52 39.73866 14.85920 32064 ft 485 kts 131°
2026-04-21 12:52 39.71717 14.89296 31400 ft 486 kts 131°
2026-04-21 12:53 39.69567 14.92672 30914 ft 482 kts 131°
2026-04-21 12:53 39.67438 14.96013 30441 ft 479 kts 131°
2026-04-21 12:53 39.65324 14.99327 29965 ft 475 kts 131°
2026-04-21 12:53 39.63223 15.02618 29419 ft 472 kts 131°
2026-04-21 12:54 39.61138 15.05879 28920 ft 467 kts 131°
2026-04-21 12:54 39.59045 15.09149 28426 ft 462 kts 131°
2026-04-21 12:54 39.57004 15.12335 27937 ft 458 kts 130°
2026-04-21 12:54 39.54999 15.15460 27459 ft 454 kts 130°
2026-04-21 12:55 39.52962 15.18633 26982 ft 451 kts 130°
2026-04-21 12:55 39.50961 15.21747 26472 ft 449 kts 130°
2026-04-21 12:55 39.48960 15.24857 25918 ft 449 kts 130°
2026-04-21 12:55 39.46961 15.27961 25401 ft 448 kts 130°
2026-04-21 12:56 39.44969 15.31051 24870 ft 446 kts 130°
2026-04-21 12:56 39.42990 15.34119 24336 ft 444 kts 130°
2026-04-21 12:56 39.41013 15.37180 23839 ft 442 kts 130°
2026-04-21 12:56 39.39045 15.40225 23295 ft 441 kts 130°
2026-04-21 12:57 39.37080 15.43262 22709 ft 438 kts 130°
2026-04-21 12:57 39.35132 15.46270 22123 ft 436 kts 130°
2026-04-21 12:57 39.33186 15.49272 21546 ft 434 kts 131°
2026-04-21 12:57 39.31224 15.52296 20977 ft 432 kts 131°
2026-04-21 12:58 39.29300 15.55259 20428 ft 429 kts 131°
2026-04-21 12:58 39.27391 15.58195 19886 ft 427 kts 131°
2026-04-21 12:58 39.25488 15.61121 19398 ft 423 kts 131°
2026-04-21 12:58 39.23598 15.64024 18918 ft 420 kts 131°
2026-04-21 12:59 39.21742 15.66872 18439 ft 410 kts 131°
2026-04-21 12:59 39.19931 15.69648 17920 ft 399 kts 131°
2026-04-21 12:59 39.18165 15.72354 17389 ft 389 kts 131°
2026-04-21 12:59 39.16448 15.74982 16883 ft 380 kts 131°
2026-04-21 13:00 39.14762 15.77560 16416 ft 371 kts 131°
2026-04-21 13:00 39.13119 15.80073 15955 ft 363 kts 132°
2026-04-21 13:00 39.11509 15.82531 15528 ft 357 kts 132°
2026-04-21 13:00 39.09930 15.84941 15196 ft 346 kts 132°
2026-04-21 13:01 39.08371 15.87319 14790 ft 339 kts 132°
2026-04-21 13:01 39.06867 15.89613 14401 ft 332 kts 132°
2026-04-21 13:01 39.05390 15.91862 14021 ft 327 kts 132°
2026-04-21 13:01 39.03936 15.94073 13650 ft 320 kts 132°
2026-04-21 13:02 39.02499 15.96257 13261 ft 319 kts 132°
2026-04-21 13:02 39.01062 15.98438 12874 ft 320 kts 132°
2026-04-21 13:02 38.98238 16.02725 12112 ft 308 kts 132°
2026-04-21 13:03 38.96866 16.04806 11757 ft 302 kts 132°
2026-04-21 13:03 38.95520 16.06847 11410 ft 297 kts 132°
2026-04-21 13:03 38.94201 16.08844 11077 ft 291 kts 132°
2026-04-21 13:03 38.92896 16.10821 10765 ft 290 kts 132°
2026-04-21 13:04 38.91589 16.12796 10458 ft 290 kts 132°
2026-04-21 13:04 38.90263 16.14799 10146 ft 290 kts 132°
2026-04-21 13:04 38.88958 16.16771 9835 ft 290 kts 132°
2026-04-21 13:04 38.87649 16.18748 9510 ft 290 kts 132°
2026-04-21 13:05 38.86343 16.20719 9173 ft 290 kts 132°
2026-04-21 13:05 38.85033 16.22695 8864 ft 290 kts 132°
2026-04-21 13:05 38.83727 16.24666 8523 ft 288 kts 132°
2026-04-21 13:05 38.82441 16.26605 8186 ft 283 kts 132°
2026-04-21 13:06 38.81175 16.28512 7862 ft 278 kts 132°
2026-04-21 13:06 38.79929 16.30387 7537 ft 274 kts 132°
2026-04-21 13:06 38.78699 16.32236 7240 ft 271 kts 133°
2026-04-21 13:06 38.77485 16.34058 6979 ft 267 kts 133°
2026-04-21 13:07 38.76345 16.35895 6669 ft 263 kts 121°
2026-04-21 13:07 38.75897 16.38118 6420 ft 256 kts 90°
2026-04-21 13:07 38.76146 16.40324 6141 ft 247 kts 76°
2026-04-21 13:07 38.76548 16.42473 5846 ft 249 kts 77°
2026-04-21 13:08 38.76970 16.44610 5602 ft 245 kts 75°
2026-04-21 13:08 38.77367 16.46728 5257 ft 244 kts 77°
2026-04-21 13:08 38.77740 16.48829 4968 ft 239 kts 77°
2026-04-21 13:08 38.78107 16.50890 4700 ft 234 kts 77°
2026-04-21 13:09 38.78467 16.52908 4394 ft 231 kts 76°
2026-04-21 13:09 38.78826 16.54919 4138 ft 227 kts 77°
2026-04-21 13:09 38.79177 16.56880 4017 ft 225 kts 76°
2026-04-21 13:09 38.79643 16.58779 3884 ft 223 kts 60°
2026-04-21 13:10 38.80595 16.60297 3768 ft 216 kts 35°
2026-04-21 13:10 38.81896 16.61148 3630 ft 207 kts
2026-04-21 13:10 38.83317 16.61278 3501 ft 205 kts 348°
2026-04-21 13:10 38.84604 16.60738 3496 ft 190 kts 325°
2026-04-21 13:11 38.85494 16.59577 3520 ft 181 kts 297°
2026-04-21 13:11 38.86103 16.58161 3502 ft 179 kts 296°
2026-04-21 13:11 38.86586 16.56733 3502 ft 174 kts 282°
2026-04-21 13:11 38.86854 16.55184 3498 ft 180 kts 282°
2026-04-21 13:12 38.87113 16.53613 3499 ft 181 kts 278°
2026-04-21 13:12 38.87320 16.52066 3493 ft 171 kts 278°
2026-04-21 13:12 38.87500 16.50609 3493 ft 160 kts 278°
2026-04-21 13:12 38.87663 16.49216 3496 ft 162 kts 276°
2026-04-21 13:13 38.87836 16.47689 3386 ft 180 kts 278°
2026-04-21 13:13 38.87998 16.46092 3177 ft 176 kts 277°
2026-04-21 13:13 38.88217 16.44517 2868 ft 179 kts 277°
2026-04-21 13:13 38.88387 16.42966 2684 ft 173 kts 278°
2026-04-21 13:14 38.88581 16.41437 2427 ft 169 kts 279°
2026-04-21 13:14 38.88731 16.39976 2175 ft 162 kts 274°
2026-04-21 13:14 38.88873 16.38564 1975 ft 160 kts 278°
2026-04-21 13:14 38.89039 16.37182 1803 ft 161 kts 277°
2026-04-21 13:15 38.89203 16.35765 1584 ft 158 kts 277°
2026-04-21 13:15 38.89362 16.34392 1348 ft 149 kts 277°
2026-04-21 13:15 38.89511 16.33095 1157 ft 145 kts 277°
2026-04-21 13:15 38.89610 16.32256 1057 ft 144 kts 276°
2026-04-21 13:16 38.89808 16.30550 761 ft 138 kts 279°
2026-04-21 13:16 38.89949 16.29343 625 ft 140 kts 277°
2026-04-21 13:16 38.90036 16.28498 487 ft 149 kts 276°
2026-04-21 13:16 38.90186 16.27180 244 ft 148 kts 278°
2026-04-21 13:17 38.90343 16.25923 53 ft 134 kts 277°
2026-04-21 13:17 38.90463 16.24860 45 ft 104 kts 279°
2026-04-21 13:17 38.90552 16.24096 42 ft 68 kts 278°
2026-04-21 13:17 38.90606 16.23706 44 ft 24 kts 295°
2026-04-21 13:18 38.90684 16.23551 44 ft 20 kts 312°
2026-04-21 13:18 38.90779 16.23486 44 ft 15 kts
2026-04-21 13:18 38.90840 16.23582 42 ft 16 kts 95°
2026-04-21 13:18 38.90824 16.23719 44 ft 15 kts 99°
2026-04-21 13:19 38.90807 16.23859 43 ft 17 kts 99°
2026-04-21 13:19 38.90787 16.24029 43 ft 21 kts 98°
2026-04-21 13:19 38.90819 16.24218 44 ft 23 kts 57°
2026-04-21 13:19 38.90812 16.24410 44 ft 20 kts 97°
2026-04-21 13:20 38.90840 16.24505 44 ft 8 kts 10°
2026-04-21 13:20 38.90860 16.24520 41 ft 0 kts 43°